SCP
0 0 0 0 -0 -0 -0 -0 -0 -0 0 0 0 -0 -0 -0 -0 -0 0 -0 -0 0 0 0 0 0 0 0 0 0 0 0 0 0 0 0 0 0 0 0 0 0 0 0 0 0 0
0 0 0 0 0 -0 -0 -0 -0 0 0 0 0 0 0 0 0 0 0 0 0 0 0 0 0 0 0 0 0 0 0 0 0 0 0 0 0 0 0 0 0 0 0 0 0 0 0
0 0 0 0 0 0 0 0 0 0 0 0 0 0 0 0 0 0 0 0 0 0 0 0 0 0 0 0 0 0 0 0 0 -0 0 0 0 0 0 0 0 0 0 0 0 0 0
0 0 0 0 0 0 0 0 0 0 0 0 0 0 0 0 0 0 0 0 0 0 0 0 0 0 0 0 0 0 0 0 0 0 -0 0 0 0 0 0 0 0 0 0 0 0 0
0 0 0 0 0 0 0 0 0 0 0 0 0 0 0 0 0 0 0 0 0 0 0 0 0 0 0 0 0 0 0 0 0 0 0 0 0 0 0 0 0 0 0 0 0 0 0
0 0 0 0 0 0 0 0 0 -0 -0 0 0 0 0 0 0 0 0 0 0 0 0 0 0 0 0 0 0 0 0 0 0 0 0 0 0 0 0 0 0 0 0 0 0 0 0
0 0 0 0 0 0 0 0 0 0 -0 -0 0 0 0 0 0 0 0 0 0 0 0 0 0 0 0 0 0 -0 0 0 0 0 0 0 0 0 0 0 0 0 0 0 0 0 0
0 0 0 0 0 0 0 0 0 0 0 0 0 0 0 0 0 0 0 0 0 0 0 0 0 0 0 0 0 0 0 0 0 0 0 0 0 0 0 0 0 0 0 0 0 0 0
0 0 0 0 0 0 0 0 0 0 0 0 0 0 0 0 0 0 0 0 0 0 0 0 0 0 0 0 0 0 -0 0 0 0 0 0 0 0 0 0 0 0 0 0 0 0 0
0 0 0 0 0 0 0 0 0 0 0 0 0 0 0 0 0 0 0 0 0 0 0 0 0 0 0 0 0 0 0 0 0 0 0 0 0 0 0 0 0 0 0 0 0 0 0
0 0 0 0 0 0 0 0 0 0 0 0 0 0 0 0 0 0 0 0 0 0 0 0 0 0 -0 0 0 0 -0 -0 0 0 0 0 0 0 0 0 0 0 0 0 0 0 0
0 0 0 0 0 0 0 0 0 0 0 0 0 0 0 0 0 0 0 0 0 0 0 0 0 0 -0 -0 -0 -0 -0 -0 0 0 0 0 0 0 0 -0 0 0 0 0 0 0 0
0 0 0 0 0 0 0 0 0 0 0 0 0 0 0 0 0 0 0 0 0 0 0 0 0 -0 -0 -0 -0 -0 -0 -0 -0 0 0 0 0 0 0 0 0 0 0 0 0 0 0
0 0 0 0 0 0 0 0 0 0 0 0 0 0 0 0 0 0 0 0 0 0 0 0 0 0 0 0 0 0 0 0 0 0 -0 0 0 0 0 -0 0 0 0 0 0 0 0
0 0 0 0 0 0 0 0 0 0 0 0 0 0 0 0 0 0 0 0 0 0 0 0 0 0 0 0 0 0 0 -0 0 0 0 0 -0 0 0 0 0 0 0 0 0 0 0
0 0 0 0 0 0 0 0 0 0 0 0 0 0 0 0 0 0 0 0 0 0 0 0 0 0 0 0 0 -0 0 0 -0 0 0 0 0 0 0 0 0 0 0 0 0 0 0
0 0 0 0 0 0 0 0 0 0 0 0 0 0 0 0 0 0 0 0 0 0 0 0 0 0 0 0 0 0 0 -0 0 0 -0 0 0 0 0 0 0 0 0 0 0 0 0
0 0 0 0 0 0 0 0 0 0 0 0 0 0 0 0 0 0 0 0 0 0 0 -0 0 0 0 0 0 0 0 -0 0 -0 0 0 0 -0 0 0 0 0 0 0 0 0 0
0 0 0 0 0 0 0 0 0 0 0 0 0 0 0 0 0 0 0 0 0 0 0 0 0 0 0 0 0 0 0 0 -0 -0 0 0 0 -0 0 0 0 0 0 0 0 0 0
0 0 0 0 0 0 0 0 0 0 0 0 0 0 0 0 0 0 0 0 0 0 0 -0 0 0 -0 0 0 -0 -0 -0 0 -0 0 0 -0 -0 0 0 0 -0 0 0 0 0 0
0 0 0 0 0 0 0 0 0 0 0 0 0 0 0 0 0 0 0 0 0 0 0 0 0 -0 0 0 -0 -0 0 0 0 0 0 0 0 -0 0 -0 -0 -0 -0 -0 0 0 -0
0 0 0 0 0 0 0 0 0 0 0 0 0 0 0 0 0 0 0 0 0 -0 -0 0 0 0 0 0 0 -0 -0 -0 0 -0 -0 -0 0 -0 -0 -0 0 -0 -0 -0 -0 -0 -0
0 0 0 0 0 0 0 0 0 0 0 0 0 0 0 0 0 0 0 0 0 -0 0 0 0 0 0 0 -0 -0 -0 -0 -0 -0 0 0 0 -0 -0 -0 -0 -0 -0 -0 -0 -0 -0
0 0 0 0 0 0 0 0 0 0 0 0 0 0 0 0 0 0 0 0 0 0 0 0 0 0 0 -0 -0 0 -0 -0 -0 -0 -0 0 0 0 -0 -0 0 0 -0 -0 -0 0 -0
0 0 0 0 0 0 0 0 0 0 0 0 0 0 0 0 0 0 0 0 0 0 0 0 0 0 0 0 0 0 0 0 -0 0 -0 -0 -0 0 -0 0 -0 0 -0 -0 0 0 0
0 0 0 0 0 0 0 0 0 0 0 0 0 0 0 0 0 0 0 0 0 0 0 0 0 0 0 0 0 0 0 0 0 0 0 -0 -0 0 0 0 0 0 -0 -0 0 0 -0
0 0 0 0 0 0 0 0 0 0 0 0 0 0 0 0 0 0 0 0 0 0 0 0 0 0 0 0 0 0 0 0 0 0 0 0 0 0 0 0 0 -0 -0 -0 0 0 0
0 0 0 0 0 0 0 0 0 0 0 0 0 0 0 0 0 0 0 0 0 0 0 0 0 0 0 0 0 0 0 0 0 0 -0 0 0 0 0 0 0 -0 -0 0 0 -0 0
0 0 0 0 0 0 0 0 0 0 0 0 0 0 0 0 0 0 0 -0 -0 -0 0 0 0 0 0 0 0 0 0 0 0 0 0 -0 0 0 0 0 0 0 -0 -0 -0 -0 0
Wind_Speed_500mb
54 54 54 53 53 52 53 54 54 55 55 55 55 56 57 56 60 61 61 58 60 60 59 59 60 56 38 25 37 20 23 24 18 14 32 43 36 23 12 10 28 21 22 38 53 54 61
51 51 52 52 52 52 52 53 55 56 57 56 56 56 58 59 61 64 64 62 62 54 55 57 51 46 29 17 20 14 15 22 18 11 27 40 21 37 13 16 11 14 20 40 54 53 54
46 46 48 50 52 54 56 59 61 62 63 65 64 64 64 66 69 73 73 72 57 57 60 50 45 34 37 86 42 21 21 29 16 13 21 31 30 26 19 12 45 37 24 30 33 12 13
44 46 48 49 51 54 58 60 64 67 69 72 72 75 76 74 75 79 77 68 59 53 41 44 40 23 29 49 38 35 42 40 23 32 29 20 33 46 56 38 37 12 9 16 4 23 12
43 44 45 46 49 52 58 64 70 71 73 76 76 79 80 79 77 79 75 50 44 43 39 34 20 12 34 14 26 21 19 49 34 35 38 28 34 29 20 7 10 7 26 26 20 2 11
43 45 46 48 52 57 63 68 76 79 79 79 77 80 80 79 76 73 55 43 35 23 7 32 6 14 19 13 27 26 19 10 21 30 29 44 24 8 5 7 31 13 21 16 32 9 11
45 46 49 52 57 62 68 72 78 82 83 81 80 84 81 82 71 62 49 36 34 6 26 47 66 63 89 49 41 65 45 12 30 19 11 11 11 27 13 20 23 25 28 28 23 15 22
51 51 52 55 60 64 71 77 82 85 85 84 85 88 87 83 69 42 32 25 33 33 32 77 64 58 52 52 27 40 31 29 18 25 10 5 23 19 22 24 24 32 39 46 39 32 29
51 52 55 59 63 68 75 80 84 86 87 88 88 87 89 77 68 33 25 28 35 46 14 46 21 10 65 27 11 37 42 25 18 32 24 25 27 15 28 35 34 36 35 35 38 35 36
52 53 57 62 65 71 78 83 85 87 90 90 87 85 84 87 43 46 5 31 32 41 7 13 21 17 67 51 10 49 63 15 13 16 16 25 8 19 8 23 30 32 34 34 29 17 23
54 55 59 64 69 73 81 84 85 90 91 88 86 83 82 75 55 19 17 45 37 14 7 12 25 17 47 30 45 37 50 36 13 28 8 30 35 28 18 19 8 24 25 11 18 3 4
56 58 61 66 71 75 83 85 86 91 92 91 89 83 85 56 31 12 23 47 21 6 13 13 27 32 35 43 41 57 39 32 36 13 22 36 33 14 17 18 19 38 25 11 12 3 11
58 60 63 67 72 78 84 82 85 92 93 92 89 81 61 31 8 12 25 40 8 7 24 22 38 28 19 32 43 34 34 30 11 9 25 20 32 35 24 20 25 16 9 4 8 12 9
59 61 65 69 72 79 83 80 83 90 93 96 88 75 17 15 5 9 22 10 3 7 13 30 25 19 16 32 28 30 31 32 17 20 17 14 10 19 4 27 17 14 20 9 8 8 11
57 61 65 68 73 78 81 75 79 87 92 94 86 52 13 23 10 12 13 7 6 22 33 35 27 17 19 22 11 15 25 17 13 22 13 9 9 11 27 18 14 8 10 23 18 18 2
56 56 62 65 72 76 77 71 75 84 88 88 80 37 22 42 21 20 5 12 9 24 23 19 12 9 20 24 13 19 11 6 15 35 12 7 11 7 26 12 12 12 8 5 4 12 10
57 61 64 68 71 74 75 68 70 78 84 82 60 24 15 46 47 30 3 6 20 45 35 14 21 13 15 9 13 11 13 24 4 22 27 14 8 6 14 7 4 6 4 7 7 7 8
58 58 61 63 68 74 73 67 65 70 79 76 38 9 42 68 18 11 8 21 38 36 29 16 15 13 8 7 7 10 11 23 19 25 13 9 6 7 12 9 5 6 6 2 6 9 9
58 58 61 61 63 73 72 69 62 60 63 68 42 15 30 35 9 10 15 23 29 30 27 21 14 10 13 9 9 14 24 16 26 8 11 10 2 6 12 6 5 7 2 4 12 7 17
58 58 58 56 57 68 73 72 64 52 48 47 22 8 17 14 39 12 23 14 23 34 18 43 13 14 21 22 18 20 32 16 40 35 38 11 5 9 9 11 14 19 20 14 10 8 14
56 56 57 53 54 59 64 68 59 51 39 28 15 7 15 10 18 26 24 20 27 26 27 17 9 26 22 15 38 5 24 29 34 19 8 2 7 6 10 23 31 34 35 30 20 24 14
53 54 55 52 52 54 56 60 52 52 40 14 15 14 17 37 26 24 10 14 25 40 26 16 24 40 32 15 25 37 40 29 14 15 5 7 6 6 12 26 17 19 27 34 32 34 28
53 52 53 50 49 51 52 51 45 40 39 14 20 20 15 15 12 10 7 27 36 34 19 50 39 29 32 29 53 71 72 65 38 20 12 8 5 7 11 17 27 10 1 26 21 28 38
52 51 52 49 46 48 47 45 39 32 29 25 22 26 11 8 7 13 32 33 30 33 33 48 50 17 35 89 86 52 43 39 29 30 33 11 2 3 11 13 6 11 26 28 29 18 19
49 48 50 47 44 44 42 40 33 29 24 27 16 17 12 13 19 38 22 30 37 51 30 38 36 57 64 47 11 15 10 9 4 13 27 32 10 6 5 4 16 11 18 20 17 11 18
47 47 48 46 42 41 39 36 31 26 29 24 21 8 19 17 9 18 40 26 20 24 16 32 57 36 29 6 6 8 8 10 9 15 10 26 24 6 2 5 7 8 43 54 25 1 29
45 47 49 45 40 37 36 34 29 28 25 24 27 15 21 25 33 14 11 18 23 14 12 34 26 16 20 6 5 5 5 10 7 11 9 3 4 8 6 7 10 23 50 44 3 8 39
43 44 48 42 37 36 35 30 28 29 26 27 36 19 21 25 58 63 34 27 27 31 9 28 22 4 5 9 6 6 5 6 8 8 16 7 7 3 4 4 8 44 31 9 12 46 28
43 43 43 36 36 37 33 29 31 32 28 26 40 30 23 33 53 77 75 52 59 54 57 12 14 29 7 5 4 6 5 6 9 5 10 6 9 6 6 4 22 33 24 39 41 44 9
Wind_Direction_500mb
34 33 30 27 24 19 15 12 8 5 2 359 356 352 348 345 340 337 333 330 326 322 319 317 317 317 322 294 275 277 252 253 268 257 215 202 196 195 199 220 233 229 236 251 253 251 251
34 32 29 25 23 20 16 13 10 5 1 357 353 350 345 342 340 336 333 332 327 322 314 314 310 309 306 282 290 288 249 236 233 252 206 198 207 217 248 225 202 261 240 252 255 256 247
32 29 26 24 22 18 15 12 8 3 359 354 351 347 344 341 339 336 333 333 327 321 317 310 306 302 281 277 282 280 227 226 213 223 211 211 213 206 234 289 241 254 267 279 252 236 227
26 24 22 20 17 14 10 6 2 359 355 352 349 346 343 339 339 336 333 334 327 327 324 312 310 288 260 301 284 271 236 232 237 240 244 241 247 247 250 268 292 291 251 255 311 240 237
21 18 15 13 10 7 5 3 360 356 353 350 346 342 340 338 336 335 334 334 331 328 316 315 316 287 271 334 326 338 254 228 243 248 251 245 251 258 251 231 297 239 255 274 294 212 227
15 11 8 4 2 1 0 358 358 355 352 350 346 340 337 337 340 335 336 335 333 333 326 326 325 303 273 322 325 345 310 259 244 240 242 238 238 225 52 127 239 233 260 257 257 190 256
9 4 2 360 358 358 357 354 353 352 350 349 348 343 339 335 338 336 335 356 356 322 309 276 274 268 281 309 303 283 270 290 254 225 208 232 202 231 200 226 255 267 274 272 274 262 228
7 4 2 358 356 354 353 352 349 348 348 347 345 341 336 332 337 332 345 13 353 313 305 300 287 273 290 290 290 324 329 262 238 238 213 261 239 234 211 233 237 243 254 261 275 267 264
5 3 1 358 356 355 353 350 347 347 347 346 344 342 337 333 338 341 330 2 357 342 306 304 319 325 6 4 184 360 27 313 247 237 208 216 227 208 221 233 240 242 242 258 255 263 259
3 0 358 358 357 354 352 349 346 348 347 346 345 342 339 335 340 333 283 336 324 339 353 280 9 35 8 0 30 20 359 359 20 348 313 227 261 243 275 290 259 252 261 272 288 256 249
357 355 355 354 353 352 350 348 346 348 347 346 345 340 334 336 322 335 338 341 339 341 314 5 26 359 1 31 354 353 358 346 322 304 235 265 282 262 257 240 244 268 286 322 306 305 195
351 351 351 351 349 349 348 346 346 347 347 346 345 341 335 335 330 26 346 346 335 74 249 349 10 352 352 7 0 342 350 14 333 312 318 269 273 252 241 247 224 252 259 331 280 187 255
349 348 347 347 348 348 346 345 346 347 348 346 345 341 336 350 86 14 345 339 33 222 341 359 338 357 3 350 344 347 344 345 303 296 268 277 262 262 232 256 274 228 105 284 225 214 220
348 347 347 346 345 344 345 345 346 347 350 346 346 344 17 3 1 324 323 16 222 37 347 336 332 346 9 1 339 337 327 323 284 281 282 251 241 217 223 211 184 190 169 189 248 183 240
348 347 346 344 341 343 345 344 345 347 351 349 348 357 43 18 339 300 306 20 270 348 320 329 328 336 333 352 315 337 324 293 355 350 308 289 250 340 328 244 161 180 167 196 209 260 247
343 341 340 336 340 344 345 344 344 346 351 353 348 357 64 15 309 279 65 229 300 318 347 341 345 24 320 333 338 340 303 345 337 322 253 229 286 350 275 293 225 158 158 171 313 188 208
336 336 339 339 341 343 346 344 345 346 349 355 356 343 12 338 340 307 57 316 330 350 17 332 345 303 339 332 313 307 274 312 32 306 308 263 202 246 304 245 217 139 207 87 115 165 185
335 340 339 338 339 343 347 347 347 348 346 357 355 335 356 343 47 0 342 324 318 340 29 6 301 351 291 296 293 287 264 296 300 311 276 297 171 252 253 320 49 93 79 30 178 214 244
338 335 338 341 339 342 348 348 350 353 351 346 337 294 340 5 43 348 323 321 349 338 350 356 305 305 5 284 306 246 279 277 320 273 308 329 296 314 350 240 37 43 337 171 269 250 215
334 336 339 339 338 340 347 349 349 357 352 347 340 340 343 15 10 343 332 329 336 356 354 332 288 1 337 309 293 277 288 303 336 313 301 268 225 196 229 250 286 278 265 227 231 273 233
334 335 338 339 339 338 343 347 350 356 2 1 11 349 23 315 332 316 326 -0 339 352 338 359 310 332 333 295 304 210 318 312 318 294 307 102 244 246 263 269 269 270 273 268 221 233 246
333 334 337 338 337 338 341 347 350 352 12 36 6 359 317 298 312 328 335 346 328 337 329 330 324 319 316 281 279 302 304 295 279 292 347 356 278 299 268 271 272 276 275 270 242 230 241
329 331 336 337 335 337 342 347 350 355 6 29 0 338 321 284 305 330 289 333 318 337 308 318 313 320 314 298 298 284 275 271 251 267 294 276 256 360 273 316 306 293 84 312 291 219 216
327 331 334 334 333 336 341 346 349 349 2 356 357 344 310 283 298 294 310 316 325 320 303 304 314 335 300 308 305 294 268 249 231 235 224 256 199 268 283 327 328 1 26 329 316 212 192
326 329 330 330 331 333 338 342 344 340 347 336 338 347 316 293 295 298 327 316 318 310 298 296 316 317 319 318 329 337 348 26 106 231 220 210 206 265 273 291 283 303 22 344 342 327 301
324 325 327 329 328 330 333 334 337 338 341 335 358 305 320 302 258 302 309 302 312 315 311 306 321 320 336 311 337 349 346 331 327 322 347 203 205 220 264 306 305 354 332 326 305 68 19
322 322 325 328 328 331 330 330 330 334 336 327 334 331 306 280 280 297 294 303 291 291 298 301 339 330 360 331 317 345 309 303 307 309 327 77 141 225 225 242 270 359 324 316 53 314 326
319 318 322 327 331 329 327 323 327 329 329 324 315 328 307 284 287 280 278 270 286 278 278 306 324 350 317 360 341 339 293 319 304 296 325 0 304 44 312 307 316 344 338 40 328 302 295
317 317 320 322 324 324 321 323 326 325 324 319 308 318 307 279 267 291 290 281 274 276 268 263 261 297 283 322 344 306 307 310 302 298 333 25 343 348 25 358 307 327 316 312 310 275 141
Wind_Speed_850mb
54 54 54 53 53 52 53 54 54 55 55 55 55 56 57 56 60 61 61 58 60 60 59 59 60 56 38 25 37 20 23 24 18 14 32 43 36 23 12 10 28 21 22 38 53 54 61
51 51 52 52 52 52 52 53 55 56 57 56 56 56 58 59 61 64 64 62 62 54 55 57 51 46 29 17 20 14 15 22 18 11 27 40 21 37 13 16 11 14 20 40 54 53 54
46 46 48 50 52 54 56 59 61 62 63 65 64 64 64 66 69 73 73 72 57 57 60 50 45 34 37 86 42 21 21 29 16 13 21 31 30 26 19 12 45 37 24 30 33 12 13
44 46 48 49 51 54 58 60 64 67 69 72 72 75 76 74 75 79 77 68 59 53 41 44 40 23 29 49 38 35 42 40 23 32 29 20 33 46 56 38 37 12 9 16 4 23 12
43 44 45 46 49 52 58 64 70 71 73 76 76 79 80 79 77 79 75 50 44 43 39 34 20 12 34 14 26 21 19 49 34 35 38 28 34 29 20 7 10 7 26 26 20 2 11
43 45 46 48 52 57 63 68 76 79 79 79 77 80 80 79 76 73 55 43 35 23 7 32 6 14 19 13 27 26 19 10 21 30 29 44 24 8 5 7 31 13 21 16 32 9 11
45 46 49 52 57 62 68 72 78 82 83 81 80 84 81 82 71 62 49 36 34 6 26 47 66 63 89 49 41 65 45 12 30 19 11 11 11 27 13 20 23 25 28 28 23 15 22
51 51 52 55 60 64 71 77 82 85 85 84 85 88 87 83 69 42 32 25 33 33 32 77 64 58 52 52 27 40 31 29 18 25 10 5 23 19 22 24 24 32 39 46 39 32 29
51 52 55 59 63 68 75 80 84 86 87 88 88 87 89 77 68 33 25 28 35 46 14 46 21 10 65 27 11 37 42 25 18 32 24 25 27 15 28 35 34 36 35 35 38 35 36
52 53 57 62 65 71 78 83 85 87 90 90 87 85 84 87 43 46 5 31 32 41 7 13 21 17 67 51 10 49 63 15 13 16 16 25 8 19 8 23 30 32 34 34 29 17 23
54 55 59 64 69 73 81 84 85 90 91 88 86 83 82 75 55 19 17 45 37 14 7 12 25 17 47 30 45 37 50 36 13 28 8 30 35 28 18 19 8 24 25 11 18 3 4
56 58 61 66 71 75 83 85 86 91 92 91 89 83 85 56 31 12 23 47 21 6 13 13 27 32 35 43 41 57 39 32 36 13 22 36 33 14 17 18 19 38 25 11 12 3 11
58 60 63 67 72 78 84 82 85 92 93 92 89 81 61 31 8 12 25 40 8 7 24 22 38 28 19 32 43 34 34 30 11 9 25 20 32 35 24 20 25 16 9 4 8 12 9
59 61 65 69 72 79 83 80 83 90 93 96 88 75 17 15 5 9 22 10 3 7 13 30 25 19 16 32 28 30 31 32 17 20 17 14 10 19 4 27 17 14 20 9 8 8 11
57 61 65 68 73 78 81 75 79 87 92 94 86 52 13 23 10 12 13 7 6 22 33 35 27 17 19 22 11 15 25 17 13 22 13 9 9 11 27 18 14 8 10 23 18 18 2
56 56 62 65 72 76 77 71 75 84 88 88 80 37 22 42 21 20 5 12 9 24 23 19 12 9 20 24 13 19 11 6 15 35 12 7 11 7 26 12 12 12 8 5 4 12 10
57 61 64 68 71 74 75 68 70 78 84 82 60 24 15 46 47 30 3 6 20 45 35 14 21 13 15 9 13 11 13 24 4 22 27 14 8 6 14 7 4 6 4 7 7 7 8
58 58 61 63 68 74 73 67 65 70 79 76 38 9 42 68 18 11 8 21 38 36 29 16 15 13 8 7 7 10 11 23 19 25 13 9 6 7 12 9 5 6 6 2 6 9 9
58 58 61 61 63 73 72 69 62 60 63 68 42 15 30 35 9 10 15 23 29 30 27 21 14 10 13 9 9 14 24 16 26 8 11 10 2 6 12 6 5 7 2 4 12 7 17
58 58 58 56 57 68 73 72 64 52 48 47 22 8 17 14 39 12 23 14 23 34 18 43 13 14 21 22 18 20 32 16 40 35 38 11 5 9 9 11 14 19 20 14 10 8 14
56 56 57 53 54 59 64 68 59 51 39 28 15 7 15 10 18 26 24 20 27 26 27 17 9 26 22 15 38 5 24 29 34 19 8 2 7 6 10 23 31 34 35 30 20 24 14
53 54 55 52 52 54 56 60 52 52 40 14 15 14 17 37 26 24 10 14 25 40 26 16 24 40 32 15 25 37 40 29 14 15 5 7 6 6 12 26 17 19 27 34 32 34 28
53 52 53 50 49 51 52 51 45 40 39 14 20 20 15 15 12 10 7 27 36 34 19 50 39 29 32 29 53 71 72 65 38 20 12 8 5 7 11 17 27 10 1 26 21 28 38
52 51 52 49 46 48 47 45 39 32 29 25 22 26 11 8 7 13 32 33 30 33 33 48 50 17 35 89 86 52 43 39 29 30 33 11 2 3 11 13 6 11 26 28 29 18 19
49 48 50 47 44 44 42 40 33 29 24 27 16 17 12 13 19 38 22 30 37 51 30 38 36 57 64 47 11 15 10 9 4 13 27 32 10 6 5 4 16 11 18 20 17 11 18
47 47 48 46 42 41 39 36 31 26 29 24 21 8 19 17 9 18 40 26 20 24 16 32 57 36 29 6 6 8 8 10 9 15 10 26 24 6 2 5 7 8 43 54 25 1 29
45 47 49 45 40 37 36 34 29 28 25 24 27 15 21 25 33 14 11 18 23 14 12 34 26 16 20 6 5 5 5 10 7 11 9 3 4 8 6 7 10 23 50 44 3 8 39
43 44 48 42 37 36 35 30 28 29 26 27 36 19 21 25 58 63 34 27 27 31 9 28 22 4 5 9 6 6 5 6 8 8 16 7 7 3 4 4 8 44 31 9 12 46 28
43 43 43 36 36 37 33 29 31 32 28 26 40 30 23 33 53 77 75 52 59 54 57 12 14 29 7 5 4 6 5 6 9 5 10 6 9 6 6 4 22 33 24 39 41 44 9
Wind_Direction_850mb
34 33 30 27 24 19 15 12 8 5 2 359 356 352 348 345 340 337 333 330 326 322 319 317 317 317 322 294 275 277 252 253 268 257 215 202 196 195 199 220 233 229 236 251 253 251 251
34 32 29 25 23 20 16 13 10 5 1 357 353 350 345 342 340 336 333 332 327 322 314 314 310 309 306 282 290 288 249 236 233 252 206 198 207 217 248 225 202 261 240 252 255 256 247
32 29 26 24 22 18 15 12 8 3 359 354 351 347 344 341 339 336 333 333 327 321 317 310 306 302 281 277 282 280 227 226 213 223 211 211 213 206 234 289 241 254 267 279 252 236 227
26 24 22 20 17 14 10 6 2 359 355 352 349 346 343 339 339 336 333 334 327 327 324 312 310 288 260 301 284 271 236 232 237 240 244 241 247 247 250 268 292 291 251 255 311 240 237
21 18 15 13 10 7 5 3 360 356 353 350 346 342 340 338 336 335 334 334 331 328 316 315 316 287 271 334 326 338 254 228 243 248 251 245 251 258 251 231 297 239 255 274 294 212 227
15 11 8 4 2 1 0 358 358 355 352 350 346 340 337 337 340 335 336 335 333 333 326 326 325 303 273 322 325 345 310 259 244 240 242 238 238 225 52 127 239 233 260 257 257 190 256
9 4 2 360 358 358 357 354 353 352 350 349 348 343 339 335 338 336 335 356 356 322 309 276 274 268 281 309 303 283 270 290 254 225 208 232 202 231 200 226 255 267 274 272 274 262 228
7 4 2 358 356 354 353 352 349 348 348 347 345 341 336 332 337 332 345 13 353 313 305 300 287 273 290 290 290 324 329 262 238 238 213 261 239 234 211 233 237 243 254 261 275 267 264
5 3 1 358 356 355 353 350 347 347 347 346 344 342 337 333 338 341 330 2 357 342 306 304 319 325 6 4 184 360 27 313 247 237 208 216 227 208 221 233 240 242 242 258 255 263 259
3 0 358 358 357 354 352 349 346 348 347 346 345 342 339 335 340 333 283 336 324 339 353 280 9 35 8 0 30 20 359 359 20 348 313 227 261 243 275 290 259 252 261 272 288 256 249
357 355 355 354 353 352 350 348 346 348 347 346 345 340 334 336 322 335 338 341 339 341 314 5 26 359 1 31 354 353 358 346 322 304 235 265 282 262 257 240 244 268 286 322 306 305 195
351 351 351 351 349 349 348 346 346 347 347 346 345 341 335 335 330 26 346 346 335 74 249 349 10 352 352 7 0 342 350 14 333 312 318 269 273 252 241 247 224 252 259 331 280 187 255
349 348 347 347 348 348 346 345 346 347 348 346 345 341 336 350 86 14 345 339 33 222 341 359 338 357 3 350 344 347 344 345 303 296 268 277 262 262 232 256 274 228 105 284 225 214 220
348 347 347 346 345 344 345 345 346 347 350 346 346 344 17 3 1 324 323 16 222 37 347 336 332 346 9 1 339 337 327 323 284 281 282 251 241 217 223 211 184 190 169 189 248 183 240
348 347 346 344 341 343 345 344 345 347 351 349 348 357 43 18 339 300 306 20 270 348 320 329 328 336 333 352 315 337 324 293 355 350 308 289 250 340 328 244 161 180 167 196 209 260 247
343 341 340 336 340 344 345 344 344 346 351 353 348 357 64 15 309 279 65 229 300 318 347 341 345 24 320 333 338 340 303 345 337 322 253 229 286 350 275 293 225 158 158 171 313 188 208
336 336 339 339 341 343 346 344 345 346 349 355 356 343 12 338 340 307 57 316 330 350 17 332 345 303 339 332 313 307 274 312 32 306 308 263 202 246 304 245 217 139 207 87 115 165 185
335 340 339 338 339 343 347 347 347 348 346 357 355 335 356 343 47 0 342 324 318 340 29 6 301 351 291 296 293 287 264 296 300 311 276 297 171 252 253 320 49 93 79 30 178 214 244
338 335 338 341 339 342 348 348 350 353 351 346 337 294 340 5 43 348 323 321 349 338 350 356 305 305 5 284 306 246 279 277 320 273 308 329 296 314 350 240 37 43 337 171 269 250 215
334 336 339 339 338 340 347 349 349 357 352 347 340 340 343 15 10 343 332 329 336 356 354 332 288 1 337 309 293 277 288 303 336 313 301 268 225 196 229 250 286 278 265 227 231 273 233
334 335 338 339 339 338 343 347 350 356 2 1 11 349 23 315 332 316 326 -0 339 352 338 359 310 332 333 295 304 210 318 312 318 294 307 102 244 246 263 269 269 270 273 268 221 233 246
333 334 337 338 337 338 341 347 350 352 12 36 6 359 317 298 312 328 335 346 328 337 329 330 324 319 316 281 279 302 304 295 279 292 347 356 278 299 268 271 272 276 275 270 242 230 241
329 331 336 337 335 337 342 347 350 355 6 29 0 338 321 284 305 330 289 333 318 337 308 318 313 320 314 298 298 284 275 271 251 267 294 276 256 360 273 316 306 293 84 312 291 219 216
327 331 334 334 333 336 341 346 349 349 2 356 357 344 310 283 298 294 310 316 325 320 303 304 314 335 300 308 305 294 268 249 231 235 224 256 199 268 283 327 328 1 26 329 316 212 192
326 329 330 330 331 333 338 342 344 340 347 336 338 347 316 293 295 298 327 316 318 310 298 296 316 317 319 318 329 337 348 26 106 231 220 210 206 265 273 291 283 303 22 344 342 327 301
324 325 327 329 328 330 333 334 337 338 341 335 358 305 320 302 258 302 309 302 312 315 311 306 321 320 336 311 337 349 346 331 327 322 347 203 205 220 264 306 305 354 332 326 305 68 19
322 322 325 328 328 331 330 330 330 334 336 327 334 331 306 280 280 297 294 303 291 291 298 301 339 330 360 331 317 345 309 303 307 309 327 77 141 225 225 242 270 359 324 316 53 314 326
319 318 322 327 331 329 327 323 327 329 329 324 315 328 307 284 287 280 278 270 286 278 278 306 324 350 317 360 341 339 293 319 304 296 325 0 304 44 312 307 316 344 338 40 328 302 295
317 317 320 322 324 324 321 323 326 325 324 319 308 318 307 279 267 291 290 281 274 276 268 263 261 297 283 322 344 306 307 310 302 298 333 25 343 348 25 358 307 327 316 312 310 275 141